Location: Home
(42.5358°N, 72.7383°W)
Time: 21:15:16
(UTC-05:00)

Vanguard 2 - Pass Details

Date: 07 December 2021
Orbit: 553 x 2936 km, 32.9° (Epoch: 20 January)

Event Time Altitude Azimuth Distance (km) Brightness Sun altitude
Rises 18:08:04 0° 256° (WSW) 3,947 12.8 -19.6°
Reaches altitude 10° 18:12:26 10° 230° (SW) 3,442 11.8 -20.4°
Maximum altitude 18:16:15 13° 205° (SSW) 3,567 11.4 -21.1°
Drops below altitude 10° 18:20:48 10° 180° (S) 4,271 11.4 -21.9°
Sets 18:27:49 0° 159° (SSE) 5,863 11.9 -23.2°
